Time,TemperatureF,DewpointF,PressureIn,WindDirection,WindDirectionDegrees,WindSpeedMPH,WindSpeedGustMPH,Humidity,HourlyPrecipIn,Conditions,Clouds,dailyrainin,SolarRadiationWatts/m^2,SoftwareType,DateUTC
2013-05-07 00:05:00,62.0,53.3,30.13,NE,45,4.0,6.0,73,-99.99,,,0.00,0.00,VWS V14.01,2013-05-07 04:05:00,
2013-05-07 00:10:00,62.0,53.6,30.13,ENE,68,5.0,7.0,74,-99.99,,,0.00,0.00,VWS V14.01,2013-05-07 04:10:00,
2013-05-07 00:15:00,61.0,53.0,30.13,East,90,4.0,5.0,75,-99.99,,,0.00,0.00,VWS V14.01,2013-05-07 04:15:00,
2013-05-07 00:20:00,61.0,53.0,30.13,ENE,68,4.0,6.0,75,-99.99,,,0.00,0.00,VWS V14.01,2013-05-07 04:20:00,
2013-05-07 00:25:00,61.0,53.0,30.13,NE,45,5.0,9.0,75,-99.99,,,0.00,0.00,VWS V14.01,2013-05-07 04:25:00,
2013-05-07 00:30:00,61.0,53.4,30.13,NE,45,3.0,5.0,76,-99.99,,,0.00,0.00,VWS V14.01,2013-05-07 04:30:00,
2013-05-07 00:35:00,61.0,53.8,30.13,NNE,22,4.0,6.0,77,-99.99,,,0.00,0.00,VWS V14.01,2013-05-07 04:35:00,
2013-05-07 00:40:00,61.0,53.8,30.13,ENE,68,2.0,5.0,77,-99.99,,,0.00,0.00,VWS V14.01,2013-05-07 04:40:00,
2013-05-07 00:45:00,61.0,53.8,30.12,NE,45,4.0,4.0,77,-99.99,,,0.00,0.00,VWS V14.01,2013-05-07 04:45:00,
2013-05-07 00:50:00,60.0,53.1,30.12,NNE,22,2.0,3.0,78,-99.99,,,0.00,0.00,VWS V14.01,2013-05-07 04:50:00,
2013-05-07 00:55:00,60.0,53.1,30.12,NE,45,2.0,3.0,78,-99.99,,,0.00,0.00,VWS V14.01,2013-05-07 04:55:00,
2013-05-07 01:00:00,60.0,53.1,30.12,NE,45,2.0,4.0,78,-99.99,,,0.00,0.00,VWS V14.01,2013-05-07 05:00:00,
2013-05-07 01:05:00,60.0,53.1,30.12,West,270,4.0,4.0,78,-99.99,,,0.00,0.00,VWS V14.01,2013-05-07 05:05:00,
2013-05-07 01:10:00,59.0,53.2,30.12,NNW,338,4.0,5.0,81,-99.99,,,0.00,0.00,VWS V14.01,2013-05-07 05:10:00,
2013-05-07 01:15:00,59.0,53.2,30.12,North,0,4.0,4.0,81,-99.99,,,0.00,0.00,VWS V14.01,2013-05-07 05:15:00,
2013-05-07 01:20:00,59.0,53.2,30.11,NNE,22,5.0,5.0,81,-99.99,,,0.00,0.00,VWS V14.01,2013-05-07 05:20:00,
2013-05-07 01:25:00,59.0,53.2,30.11,NNE,22,4.0,4.0,81,-99.99,,,0.00,0.00,VWS V14.01,2013-05-07 05:25:00,
2013-05-07 01:30:00,59.0,53.2,30.11,North,0,4.0,5.0,81,-99.99,,,0.00,0.00,VWS V14.01,2013-05-07 05:30:00,
2013-05-07 01:35:00,59.0,53.5,30.11,NE,45,4.0,7.0,82,-99.99,,,0.00,0.00,VWS V14.01,2013-05-07 05:35:00,
2013-05-07 01:40:00,59.0,53.5,30.11,North,0,4.0,5.0,82,-99.99,,,0.00,0.00,VWS V14.01,2013-05-07 05:40:00,
2013-05-07 01:45:00,59.0,53.8,30.11,NNE,22,7.0,8.0,83,-99.99,,,0.00,0.00,VWS V14.01,2013-05-07 05:45:00,
2013-05-07 01:50:00,58.0,52.9,30.11,ENE,68,3.0,7.0,83,-99.99,,,0.00,0.00,VWS V14.01,2013-05-07 05:50:00,
2013-05-07 01:55:00,58.0,53.2,30.11,NNE,22,4.0,7.0,84,-99.99,,,0.00,0.00,VWS V14.01,2013-05-07 05:55:00,
2013-05-07 02:00:00,58.0,53.2,30.11,NNE,22,8.0,8.0,84,-99.99,,,0.00,0.00,VWS V14.01,2013-05-07 06:00:00,
2013-05-07 02:05:00,58.0,53.5,30.11,North,0,4.0,6.0,85,-99.99,,,0.00,0.00,VWS V14.01,2013-05-07 06:05:00,
2013-05-07 02:10:00,58.0,53.5,30.11,NE,45,3.0,4.0,85,-99.99,,,0.00,0.00,VWS V14.01,2013-05-07 06:10:00,
2013-05-07 02:15:00,58.0,53.8,30.11,NNE,22,5.0,5.0,86,-99.99,,,0.00,0.00,VWS V14.01,2013-05-07 06:15:00,
2013-05-07 02:20:00,58.0,53.8,30.10,NNE,22,4.0,7.0,86,-99.99,,,0.00,0.00,VWS V14.01,2013-05-07 06:20:00,
2013-05-07 02:25:00,58.0,53.8,30.10,NE,45,3.0,7.0,86,-99.99,,,0.00,0.00,VWS V14.01,2013-05-07 06:25:00,
2013-05-07 02:30:00,57.0,53.2,30.10,NE,45,3.0,5.0,87,-99.99,,,0.00,0.00,VWS V14.01,2013-05-07 06:30:00,
2013-05-07 02:35:00,57.0,53.2,30.10,NNE,22,3.0,6.0,87,-99.99,,,0.00,0.00,VWS V14.01,2013-05-07 06:35:00,
2013-05-07 02:40:00,57.0,53.5,30.10,ENE,68,2.0,4.0,88,-99.99,,,0.00,0.00,VWS V14.01,2013-05-07 06:40:00,
2013-05-07 02:45:00,57.0,53.5,30.10,North,0,6.0,6.0,88,-99.99,,,0.00,0.00,VWS V14.01,2013-05-07 06:45:00,
2013-05-07 02:50:00,57.0,53.8,30.10,NNE,22,7.0,8.0,89,-99.99,,,0.00,0.00,VWS V14.01,2013-05-07 06:50:00,
2013-05-07 02:55:00,57.0,53.8,30.10,North,0,8.0,9.0,89,-99.99,,,0.00,0.00,VWS V14.01,2013-05-07 06:55:00,
2013-05-07 03:00:00,57.0,53.8,30.10,North,0,5.0,9.0,89,-99.99,,,0.00,0.00,VWS V14.01,2013-05-07 07:00:00,
2013-05-07 03:05:00,57.0,54.1,30.10,NNE,22,5.0,5.0,90,-99.99,,,0.00,0.00,VWS V14.01,2013-05-07 07:05:00,
2013-05-07 03:10:00,57.0,54.1,30.10,North,0,7.0,9.0,90,-99.99,,,0.00,0.00,VWS V14.01,2013-05-07 07:10:00,
2013-05-07 03:15:00,57.0,53.8,30.10,NNE,22,6.0,6.0,89,-99.99,,,0.00,0.00,VWS V14.01,2013-05-07 07:15:00,
2013-05-07 03:20:00,57.0,54.1,30.10,NNE,22,5.0,6.0,90,-99.99,,,0.00,0.00,VWS V14.01,2013-05-07 07:20:00,
2013-05-07 03:25:00,56.0,53.1,30.10,NNE,22,6.0,8.0,90,-99.99,,,0.00,0.00,VWS V14.01,2013-05-07 07:25:00,
2013-05-07 03:30:00,56.0,53.1,30.10,NNE,22,5.0,7.0,90,-99.99,,,0.00,0.00,VWS V14.01,2013-05-07 07:30:00,
2013-05-07 03:35:00,56.0,53.4,30.10,NNW,338,5.0,8.0,91,-99.99,,,0.00,0.00,VWS V14.01,2013-05-07 07:35:00,
2013-05-07 03:40:00,56.0,53.4,30.10,North,0,6.0,6.0,91,-99.99,,,0.00,0.00,VWS V14.01,2013-05-07 07:40:00,
2013-05-07 03:45:00,56.0,53.4,30.10,North,0,4.0,10.0,91,-99.99,,,0.00,0.00,VWS V14.01,2013-05-07 07:45:00,
2013-05-07 03:50:00,56.0,53.1,30.10,NE,45,4.0,8.0,90,-99.99,,,0.00,0.00,VWS V14.01,2013-05-07 07:50:00,
2013-05-07 03:55:00,56.0,53.1,30.10,North,0,7.0,8.0,90,-99.99,,,0.00,0.00,VWS V14.01,2013-05-07 07:55:00,
2013-05-07 04:00:00,56.0,53.1,30.10,NNW,338,7.0,10.0,90,-99.99,,,0.00,0.00,VWS V14.01,2013-05-07 08:00:00,
2013-05-07 04:05:00,56.0,52.8,30.10,NE,45,3.0,10.0,89,-99.99,,,0.00,0.00,VWS V14.01,2013-05-07 08:05:00,
2013-05-07 04:10:00,56.0,52.5,30.10,North,0,4.0,5.0,88,-99.99,,,0.00,0.00,VWS V14.01,2013-05-07 08:10:00,
2013-05-07 04:15:00,56.0,52.5,30.10,NNE,22,2.0,6.0,88,-99.99,,,0.00,0.00,VWS V14.01,2013-05-07 08:15:00,
2013-05-07 04:20:00,56.0,52.8,30.10,NNE,22,6.0,7.0,89,-99.99,,,0.00,0.00,VWS V14.01,2013-05-07 08:20:00,
2013-05-07 04:25:00,56.0,52.8,30.10,NNE,22,6.0,8.0,89,-99.99,,,0.00,0.00,VWS V14.01,2013-05-07 08:25:00,
2013-05-07 04:30:00,55.0,52.1,30.10,NE,45,5.0,5.0,90,-99.99,,,0.00,0.00,VWS V14.01,2013-05-07 08:30:00,
2013-05-07 04:35:00,55.0,52.1,30.10,North,0,6.0,6.0,90,-99.99,,,0.00,0.00,VWS V14.01,2013-05-07 08:35:00,
2013-05-07 04:40:00,55.0,52.4,30.10,NNE,22,2.0,9.0,91,-99.99,,,0.00,0.00,VWS V14.01,2013-05-07 08:40:00,
2013-05-07 04:45:00,55.0,52.7,30.09,North,0,4.0,7.0,92,-99.99,,,0.00,0.00,VWS V14.01,2013-05-07 08:45:00,
2013-05-07 04:50:00,55.0,52.7,30.09,NNW,338,2.0,5.0,92,-99.99,,,0.00,0.00,VWS V14.01,2013-05-07 08:50:00,
2013-05-07 04:55:00,54.0,52.0,30.09,NNE,22,4.0,6.0,93,-99.99,,,0.00,0.00,VWS V14.01,2013-05-07 08:55:00,
2013-05-07 05:00:00,54.0,52.3,30.09,NNE,22,4.0,7.0,94,-99.99,,,0.00,0.00,VWS V14.01,2013-05-07 09:00:00,
2013-05-07 05:05:00,54.0,52.3,30.09,NNW,338,8.0,8.0,94,-99.99,,,0.00,0.00,VWS V14.01,2013-05-07 09:05:00,
2013-05-07 05:10:00,54.0,52.3,30.09,NNE,22,4.0,9.0,94,-99.99,,,0.00,0.00,VWS V14.01,2013-05-07 09:10:00,
2013-05-07 05:15:00,54.0,52.3,30.09,NNW,338,8.0,11.0,94,-99.99,,,0.00,0.00,VWS V14.01,2013-05-07 09:15:00,
2013-05-07 05:20:00,54.0,52.3,30.09,North,0,7.0,8.0,94,-99.99,,,0.00,0.00,VWS V14.01,2013-05-07 09:20:00,
2013-05-07 05:25:00,54.0,52.3,30.09,NE,45,7.0,8.0,94,-99.99,,,0.00,0.00,VWS V14.01,2013-05-07 09:25:00,
2013-05-07 05:30:00,54.0,52.3,30.09,NNE,22,5.0,8.0,94,-99.99,,,0.00,0.00,VWS V14.01,2013-05-07 09:30:00,
2013-05-07 05:35:00,54.0,52.3,30.09,NE,45,4.0,8.0,94,-99.99,,,0.00,0.00,VWS V14.01,2013-05-07 09:35:00,
2013-05-07 05:40:00,54.0,52.3,30.10,NE,45,4.0,7.0,94,-99.99,,,0.00,0.00,VWS V14.01,2013-05-07 09:40:00,
2013-05-07 05:45:00,54.0,52.3,30.10,NE,45,7.0,7.0,94,-99.99,,,0.00,10.00,VWS V14.01,2013-05-07 09:45:00,
2013-05-07 05:50:00,54.0,52.3,30.10,NNW,338,3.0,5.0,94,-99.99,,,0.00,10.00,VWS V14.01,2013-05-07 09:50:00,
2013-05-07 05:55:00,54.0,52.3,30.10,NNE,22,6.0,6.0,94,-99.99,,,0.00,10.00,VWS V14.01,2013-05-07 09:55:00,
2013-05-07 06:00:00,54.0,52.3,30.10,NNE,22,7.0,8.0,94,-99.99,,,0.00,10.00,VWS V14.01,2013-05-07 10:00:00,
2013-05-07 06:05:00,54.0,52.0,30.10,NNE,22,5.0,7.0,93,-99.99,,,0.00,20.00,VWS V14.01,2013-05-07 10:05:00,
2013-05-07 06:10:00,54.0,52.0,30.10,NNW,338,5.0,5.0,93,-99.99,,,0.00,50.00,VWS V14.01,2013-05-07 10:10:00,
2013-05-07 06:15:00,54.0,52.0,30.10,ENE,68,5.0,5.0,93,-99.99,,,0.00,70.00,VWS V14.01,2013-05-07 10:15:00,
2013-05-07 06:20:00,54.0,51.7,30.10,North,0,6.0,7.0,92,-99.99,,,0.00,80.00,VWS V14.01,2013-05-07 10:20:00,
2013-05-07 06:25:00,55.0,52.7,30.10,North,0,5.0,8.0,92,-99.99,,,0.00,110.00,VWS V14.01,2013-05-07 10:25:00,
2013-05-07 06:30:00,55.0,52.4,30.10,NNE,22,7.0,10.0,91,-99.99,,,0.00,130.00,VWS V14.01,2013-05-07 10:30:00,
2013-05-07 06:35:00,55.0,52.4,30.11,NNE,22,1.0,5.0,91,-99.99,,,0.00,100.00,VWS V14.01,2013-05-07 10:35:00,
2013-05-07 06:40:00,55.0,52.1,30.11,North,0,4.0,4.0,90,-99.99,,,0.00,120.00,VWS V14.01,2013-05-07 10:40:00,
2013-05-07 06:45:00,55.0,51.8,30.11,West,270,4.0,6.0,89,-99.99,,,0.00,150.00,VWS V14.01,2013-05-07 10:45:00,
2013-05-07 06:50:00,55.0,51.8,30.11,North,0,4.0,7.0,89,-99.99,,,0.00,160.00,VWS V14.01,2013-05-07 10:50:00,
2013-05-07 06:55:00,55.0,51.8,30.11,NNE,22,2.0,2.0,89,-99.99,,,0.00,170.00,VWS V14.01,2013-05-07 10:55:00,
2013-05-07 07:00:00,55.0,51.8,30.11,NE,45,6.0,6.0,89,-99.99,,,0.00,120.00,VWS V14.01,2013-05-07 11:00:00,
2013-05-07 07:05:00,55.0,51.8,30.11,NNE,22,6.0,8.0,89,-99.99,,,0.00,110.00,VWS V14.01,2013-05-07 11:05:00,
2013-05-07 07:10:00,55.0,51.5,30.11,North,0,5.0,8.0,88,-99.99,,,0.00,200.00,VWS V14.01,2013-05-07 11:10:00,
2013-05-07 07:15:00,56.0,52.5,30.11,NE,45,5.0,9.0,88,-99.99,,,0.00,140.00,VWS V14.01,2013-05-07 11:15:00,
2013-05-07 07:20:00,56.0,52.5,30.11,North,0,7.0,10.0,88,-99.99,,,0.00,100.00,VWS V14.01,2013-05-07 11:20:00,
2013-05-07 07:25:00,56.0,52.2,30.11,NNE,22,6.0,14.0,87,-99.99,,,0.00,190.00,VWS V14.01,2013-05-07 11:25:00,
2013-05-07 07:30:00,56.0,52.2,30.11,NE,45,6.0,12.0,87,-99.99,,,0.00,240.00,VWS V14.01,2013-05-07 11:30:00,
2013-05-07 07:35:00,57.0,53.2,30.11,NNE,22,6.0,10.0,87,-99.99,,,0.00,240.00,VWS V14.01,2013-05-07 11:35:00,
2013-05-07 07:40:00,57.0,52.9,30.11,ENE,68,4.0,4.0,86,-99.99,,,0.00,270.00,VWS V14.01,2013-05-07 11:40:00,
2013-05-07 07:45:00,57.0,52.5,30.11,ENE,68,9.0,11.0,85,-99.99,,,0.00,290.00,VWS V14.01,2013-05-07 11:45:00,
2013-05-07 07:50:00,58.0,53.5,30.11,NNE,22,6.0,10.0,85,-99.99,,,0.00,290.00,VWS V14.01,2013-05-07 11:50:00,
2013-05-07 07:55:00,58.0,53.5,30.11,NNE,22,5.0,6.0,85,-99.99,,,0.00,280.00,VWS V14.01,2013-05-07 11:55:00,
2013-05-07 08:00:00,58.0,53.2,30.11,NNW,338,7.0,10.0,84,-99.99,,,0.00,260.00,VWS V14.01,2013-05-07 12:00:00,
2013-05-07 08:05:00,59.0,53.8,30.11,NNE,22,4.0,6.0,83,-99.99,,,0.00,180.00,VWS V14.01,2013-05-07 12:05:00,
2013-05-07 08:10:00,59.0,53.5,30.11,NNE,22,6.0,8.0,82,-99.99,,,0.00,290.00,VWS V14.01,2013-05-07 12:10:00,
2013-05-07 08:15:00,59.0,53.5,30.11,North,0,7.0,7.0,82,-99.99,,,0.00,300.00,VWS V14.01,2013-05-07 12:15:00,
2013-05-07 08:20:00,60.0,54.2,30.11,East,90,3.0,3.0,81,-99.99,,,0.00,280.00,VWS V14.01,2013-05-07 12:20:00,
2013-05-07 08:25:00,60.0,53.8,30.11,North,0,5.0,7.0,80,-99.99,,,0.00,350.00,VWS V14.01,2013-05-07 12:25:00,
2013-05-07 08:30:00,60.0,53.8,30.11,ENE,68,4.0,7.0,80,-99.99,,,0.00,350.00,VWS V14.01,2013-05-07 12:30:00,
2013-05-07 08:35:00,61.0,54.5,30.11,NE,45,5.0,7.0,79,-99.99,,,0.00,390.00,VWS V14.01,2013-05-07 12:35:00,
2013-05-07 08:40:00,61.0,54.1,30.11,NE,45,4.0,8.0,78,-99.99,,,0.00,400.00,VWS V14.01,2013-05-07 12:40:00,
2013-05-07 08:45:00,62.0,55.1,30.11,NE,45,4.0,6.0,78,-99.99,,,0.00,420.00,VWS V14.01,2013-05-07 12:45:00,
2013-05-07 08:50:00,62.0,54.7,30.11,NNE,22,4.0,7.0,77,-99.99,,,0.00,470.00,VWS V14.01,2013-05-07 12:50:00,
2013-05-07 08:55:00,62.0,54.7,30.11,North,0,4.0,9.0,77,-99.99,,,0.00,480.00,VWS V14.01,2013-05-07 12:55:00,
2013-05-07 09:00:00,63.0,55.3,30.11,NNE,22,8.0,10.0,76,-99.99,,,0.00,500.00,VWS V14.01,2013-05-07 13:00:00,
2013-05-07 09:05:00,62.0,54.4,30.11,NNE,22,8.0,8.0,76,-99.99,,,0.00,500.00,VWS V14.01,2013-05-07 13:05:00,
2013-05-07 09:10:00,63.0,55.0,30.11,NE,45,4.0,9.0,75,-99.99,,,0.00,510.00,VWS V14.01,2013-05-07 13:10:00,
2013-05-07 09:15:00,63.0,54.6,30.11,NE,45,8.0,8.0,74,-99.99,,,0.00,530.00,VWS V14.01,2013-05-07 13:15:00,
2013-05-07 09:20:00,63.0,54.6,30.12,NNE,22,5.0,9.0,74,-99.99,,,0.00,530.00,VWS V14.01,2013-05-07 13:20:00,
2013-05-07 09:25:00,63.0,54.6,30.11,NE,45,5.0,7.0,74,-99.99,,,0.00,540.00,VWS V14.01,2013-05-07 13:25:00,
2013-05-07 09:30:00,64.0,55.2,30.11,ENE,68,3.0,5.0,73,-99.99,,,0.00,550.00,VWS V14.01,2013-05-07 13:30:00,
2013-05-07 09:35:00,65.0,55.4,30.11,ENE,68,7.0,9.0,71,-99.99,,,0.00,560.00,VWS V14.01,2013-05-07 13:35:00,
2013-05-07 09:40:00,65.0,55.0,30.11,NE,45,4.0,8.0,70,-99.99,,,0.00,570.00,VWS V14.01,2013-05-07 13:40:00,
2013-05-07 09:45:00,65.0,55.0,30.11,North,0,4.0,6.0,70,-99.99,,,0.00,570.00,VWS V14.01,2013-05-07 13:45:00,
2013-05-07 09:50:00,66.0,55.2,30.11,NNW,338,10.0,11.0,68,-99.99,,,0.00,580.00,VWS V14.01,2013-05-07 13:50:00,
2013-05-07 09:55:00,66.0,55.5,30.11,NE,45,7.0,9.0,69,-99.99,,,0.00,580.00,VWS V14.01,2013-05-07 13:55:00,
2013-05-07 10:00:00,66.0,55.5,30.11,NNE,22,3.0,7.0,69,-99.99,,,0.00,590.00,VWS V14.01,2013-05-07 14:00:00,
2013-05-07 10:05:00,67.0,56.1,30.11,NNE,22,6.0,6.0,68,-99.99,,,0.00,610.00,VWS V14.01,2013-05-07 14:05:00,
2013-05-07 10:10:00,67.0,55.7,30.11,NE,45,6.0,8.0,67,-99.99,,,0.00,610.00,VWS V14.01,2013-05-07 14:10:00,
2013-05-07 10:15:00,67.0,54.9,30.11,NNE,22,4.0,8.0,65,-99.99,,,0.00,630.00,VWS V14.01,2013-05-07 14:15:00,
2013-05-07 10:20:00,68.0,55.8,30.11,NNW,338,4.0,11.0,65,-99.99,,,0.00,630.00,VWS V14.01,2013-05-07 14:20:00,
2013-05-07 10:25:00,68.0,55.8,30.11,NNE,22,2.0,8.0,65,-99.99,,,0.00,640.00,VWS V14.01,2013-05-07 14:25:00,
2013-05-07 10:30:00,69.0,55.5,30.11,North,0,6.0,8.0,62,-99.99,,,0.00,650.00,VWS V14.01,2013-05-07 14:30:00,
2013-05-07 10:35:00,70.0,56.4,30.11,ENE,68,4.0,6.0,62,-99.99,,,0.00,640.00,VWS V14.01,2013-05-07 14:35:00,
2013-05-07 10:40:00,70.0,55.0,30.11,NNE,22,7.0,7.0,59,-99.99,,,0.00,700.00,VWS V14.01,2013-05-07 14:40:00,
2013-05-07 10:45:00,70.0,55.0,30.11,East,90,6.0,7.0,59,-99.99,,,0.00,680.00,VWS V14.01,2013-05-07 14:45:00,
2013-05-07 10:50:00,71.0,56.0,30.10,NE,45,3.0,8.0,59,-99.99,,,0.00,750.00,VWS V14.01,2013-05-07 14:50:00,
2013-05-07 10:55:00,71.0,55.0,30.10,ENE,68,2.0,2.0,57,-99.99,,,0.00,770.00,VWS V14.01,2013-05-07 14:55:00,
2013-05-07 11:00:00,72.0,55.0,30.10,NE,45,4.0,8.0,55,-99.99,,,0.00,770.00,VWS V14.01,2013-05-07 15:00:00,
2013-05-07 11:05:00,72.0,55.5,30.10,ESE,112,1.0,7.0,56,-99.99,,,0.00,230.00,VWS V14.01,2013-05-07 15:05:00,
2013-05-07 11:10:00,71.0,53.0,30.10,NE,45,4.0,4.0,53,-99.99,,,0.00,330.00,VWS V14.01,2013-05-07 15:10:00,
2013-05-07 11:15:00,71.0,53.0,30.10,NNE,22,6.0,9.0,53,-99.99,,,0.00,820.00,VWS V14.01,2013-05-07 15:15:00,
2013-05-07 11:20:00,71.0,52.0,30.10,NE,45,7.0,12.0,51,-99.99,,,0.00,740.00,VWS V14.01,2013-05-07 15:20:00,
2013-05-07 11:25:00,72.0,51.8,30.09,NE,45,14.0,14.0,49,-99.99,,,0.00,820.00,VWS V14.01,2013-05-07 15:25:00,
2013-05-07 11:30:00,73.0,52.2,30.09,NNE,22,7.0,16.0,48,-99.99,,,0.00,770.00,VWS V14.01,2013-05-07 15:30:00,
2013-05-07 11:35:00,73.0,52.2,30.09,East,90,7.0,7.0,48,-99.99,,,0.00,790.00,VWS V14.01,2013-05-07 15:35:00,
2013-05-07 11:40:00,73.0,51.6,30.09,East,90,8.0,15.0,47,-99.99,,,0.00,250.00,VWS V14.01,2013-05-07 15:40:00,
2013-05-07 11:45:00,73.0,51.6,30.09,NE,45,7.0,7.0,47,-99.99,,,0.00,870.00,VWS V14.01,2013-05-07 15:45:00,
2013-05-07 11:50:00,73.0,52.2,30.09,ENE,68,8.0,16.0,48,-99.99,,,0.00,720.00,VWS V14.01,2013-05-07 15:50:00,
2013-05-07 11:55:00,73.0,52.2,30.09,North,0,6.0,13.0,48,-99.99,,,0.00,920.00,VWS V14.01,2013-05-07 15:55:00,
2013-05-07 12:00:00,74.0,52.5,30.09,NNE,22,4.0,4.0,47,-99.99,,,0.00,880.00,VWS V14.01,2013-05-07 16:00:00,
2013-05-07 12:05:00,74.0,52.5,30.08,ESE,112,10.0,15.0,47,-99.99,,,0.00,280.00,VWS V14.01,2013-05-07 16:05:00,
2013-05-07 12:10:00,73.0,51.6,30.09,ENE,68,9.0,11.0,47,-99.99,,,0.00,260.00,VWS V14.01,2013-05-07 16:10:00,
2013-05-07 12:15:00,73.0,52.2,30.09,SSE,158,5.0,10.0,48,-99.99,,,0.00,990.00,VWS V14.01,2013-05-07 16:15:00,
2013-05-07 12:20:00,72.0,50.7,30.09,ENE,68,12.0,19.0,47,-99.99,,,0.00,190.00,VWS V14.01,2013-05-07 16:20:00,
2013-05-07 12:25:00,72.0,51.3,30.08,NE,45,9.0,9.0,48,-99.99,,,0.00,860.00,VWS V14.01,2013-05-07 16:25:00,
2013-05-07 12:30:00,73.0,51.6,30.08,ENE,68,10.0,14.0,47,-99.99,,,0.00,200.00,VWS V14.01,2013-05-07 16:30:00,
2013-05-07 12:35:00,73.0,52.7,30.08,NE,45,4.0,4.0,49,-99.99,,,0.00,310.00,VWS V14.01,2013-05-07 16:35:00,
2013-05-07 12:40:00,73.0,51.6,30.08,NE,45,12.0,12.0,47,-99.99,,,0.00,390.00,VWS V14.01,2013-05-07 16:40:00,
2013-05-07 12:45:00,74.0,52.5,30.08,NE,45,4.0,5.0,47,-99.99,,,0.00,250.00,VWS V14.01,2013-05-07 16:45:00,
2013-05-07 12:50:00,73.0,51.6,30.08,NE,45,7.0,12.0,47,-99.99,,,0.00,310.00,VWS V14.01,2013-05-07 16:50:00,
2013-05-07 12:55:00,73.0,51.6,30.07,NNW,338,4.0,4.0,47,-99.99,,,0.00,290.00,VWS V14.01,2013-05-07 16:55:00,
2013-05-07 13:00:00,73.0,51.0,30.07,East,90,8.0,16.0,46,-99.99,,,0.00,900.00,VWS V14.01,2013-05-07 17:00:00,
2013-05-07 13:05:00,74.0,51.9,30.07,NNW,338,5.0,9.0,46,-99.99,,,0.00,850.00,VWS V14.01,2013-05-07 17:05:00,
2013-05-07 13:10:00,75.0,52.2,30.07,East,90,6.0,11.0,45,-99.99,,,0.00,800.00,VWS V14.01,2013-05-07 17:10:00,
2013-05-07 13:15:00,75.0,51.6,30.07,ENE,68,7.0,7.0,44,-99.99,,,0.00,810.00,VWS V14.01,2013-05-07 17:15:00,
2013-05-07 13:20:00,75.0,51.0,30.07,ENE,68,8.0,8.0,43,-99.99,,,0.00,810.00,VWS V14.01,2013-05-07 17:20:00,
2013-05-07 13:25:00,75.0,50.4,30.07,ENE,68,8.0,16.0,42,-99.99,,,0.00,800.00,VWS V14.01,2013-05-07 17:25:00,
2013-05-07 13:30:00,75.0,50.4,30.07,ENE,68,11.0,16.0,42,-99.99,,,0.00,270.00,VWS V14.01,2013-05-07 17:30:00,
2013-05-07 13:35:00,75.0,51.0,30.06,NE,45,5.0,11.0,43,-99.99,,,0.00,810.00,VWS V14.01,2013-05-07 17:35:00,
2013-05-07 13:40:00,76.0,51.9,30.06,ENE,68,8.0,15.0,43,-99.99,,,0.00,770.00,VWS V14.01,2013-05-07 17:40:00,
2013-05-07 13:45:00,75.0,50.4,30.06,ENE,68,13.0,15.0,42,-99.99,,,0.00,810.00,VWS V14.01,2013-05-07 17:45:00,
2013-05-07 13:50:00,75.0,51.0,30.06,ENE,68,10.0,18.0,43,-99.99,,,0.00,830.00,VWS V14.01,2013-05-07 17:50:00,
2013-05-07 13:55:00,75.0,51.0,30.06,ESE,112,10.0,12.0,43,-99.99,,,0.00,760.00,VWS V14.01,2013-05-07 17:55:00,
2013-05-07 14:00:00,75.0,51.0,30.06,NE,45,14.0,17.0,43,-99.99,,,0.00,760.00,VWS V14.01,2013-05-07 18:00:00,
2013-05-07 14:05:00,75.0,51.6,30.06,ENE,68,6.0,13.0,44,-99.99,,,0.00,890.00,VWS V14.01,2013-05-07 18:05:00,
2013-05-07 14:10:00,75.0,52.2,30.06,East,90,6.0,9.0,45,-99.99,,,0.00,830.00,VWS V14.01,2013-05-07 18:10:00,
2013-05-07 14:15:00,76.0,51.9,30.06,East,90,13.0,18.0,43,-99.99,,,0.00,650.00,VWS V14.01,2013-05-07 18:15:00,
2013-05-07 14:20:00,75.0,51.0,30.06,East,90,12.0,12.0,43,-99.99,,,0.00,880.00,VWS V14.01,2013-05-07 18:20:00,
2013-05-07 14:25:00,75.0,51.0,30.05,ESE,112,9.0,15.0,43,-99.99,,,0.00,350.00,VWS V14.01,2013-05-07 18:25:00,
2013-05-07 14:30:00,75.0,51.0,30.05,ENE,68,7.0,14.0,43,-99.99,,,0.00,740.00,VWS V14.01,2013-05-07 18:30:00,
2013-05-07 14:35:00,76.0,51.9,30.05,ENE,68,16.0,16.0,43,-99.99,,,0.00,700.00,VWS V14.01,2013-05-07 18:35:00,
2013-05-07 14:40:00,76.0,50.6,30.04,NE,45,6.0,16.0,41,-99.99,,,0.00,530.00,VWS V14.01,2013-05-07 18:40:00,
2013-05-07 14:45:00,76.0,51.3,30.05,ENE,68,11.0,13.0,42,-99.99,,,0.00,700.00,VWS V14.01,2013-05-07 18:45:00,
2013-05-07 14:50:00,76.0,51.3,30.04,ESE,112,6.0,17.0,42,-99.99,,,0.00,720.00,VWS V14.01,2013-05-07 18:50:00,
2013-05-07 14:55:00,76.0,51.3,30.04,ENE,68,6.0,10.0,42,-99.99,,,0.00,750.00,VWS V14.01,2013-05-07 18:55:00,
2013-05-07 15:00:00,76.0,51.3,30.04,ENE,68,10.0,12.0,42,-99.99,,,0.00,770.00,VWS V14.01,2013-05-07 19:00:00,
2013-05-07 15:05:00,75.0,51.6,30.04,NE,45,10.0,10.0,44,-99.99,,,0.00,710.00,VWS V14.01,2013-05-07 19:05:00,
2013-05-07 15:10:00,76.0,51.9,30.04,ENE,68,4.0,5.0,43,-99.99,,,0.00,710.00,VWS V14.01,2013-05-07 19:10:00,
2013-05-07 15:15:00,76.0,51.9,30.04,ENE,68,7.0,7.0,43,-99.99,,,0.00,330.00,VWS V14.01,2013-05-07 19:15:00,
2013-05-07 15:20:00,76.0,51.3,30.03,ENE,68,6.0,10.0,42,-99.99,,,0.00,200.00,VWS V14.01,2013-05-07 19:20:00,
2013-05-07 15:25:00,75.0,51.6,30.03,ENE,68,16.0,16.0,44,-99.99,,,0.00,480.00,VWS V14.01,2013-05-07 19:25:00,
2013-05-07 15:30:00,75.0,50.4,30.03,East,90,7.0,14.0,42,-99.99,,,0.00,540.00,VWS V14.01,2013-05-07 19:30:00,
2013-05-07 15:35:00,75.0,51.6,30.03,ENE,68,7.0,9.0,44,-99.99,,,0.00,620.00,VWS V14.01,2013-05-07 19:35:00,
2013-05-07 15:40:00,76.0,52.5,30.03,East,90,6.0,15.0,44,-99.99,,,0.00,660.00,VWS V14.01,2013-05-07 19:40:00,
2013-05-07 15:45:00,76.0,51.9,30.03,NNE,22,3.0,14.0,43,-99.99,,,0.00,640.00,VWS V14.01,2013-05-07 19:45:00,
2013-05-07 15:50:00,76.0,51.3,30.03,NE,45,18.0,21.0,42,-99.99,,,0.00,580.00,VWS V14.01,2013-05-07 19:50:00,
2013-05-07 15:55:00,75.0,50.4,30.02,North,0,8.0,17.0,42,-99.99,,,0.00,570.00,VWS V14.01,2013-05-07 19:55:00,
2013-05-07 16:00:00,76.0,51.9,30.02,NE,45,6.0,11.0,43,-99.99,,,0.00,430.00,VWS V14.01,2013-05-07 20:00:00,
2013-05-07 16:05:00,76.0,51.9,30.02,NE,45,10.0,14.0,43,-99.99,,,0.00,460.00,VWS V14.01,2013-05-07 20:05:00,
2013-05-07 16:10:00,76.0,51.9,30.02,ENE,68,7.0,13.0,43,-99.99,,,0.00,400.00,VWS V14.01,2013-05-07 20:10:00,
2013-05-07 16:15:00,75.0,49.7,30.02,NE,45,11.0,16.0,41,-99.99,,,0.00,230.00,VWS V14.01,2013-05-07 20:15:00,
2013-05-07 16:20:00,75.0,49.7,30.02,NE,45,8.0,19.0,41,-99.99,,,0.00,250.00,VWS V14.01,2013-05-07 20:20:00,
2013-05-07 16:25:00,75.0,49.7,30.02,NE,45,7.0,14.0,41,-99.99,,,0.00,250.00,VWS V14.01,2013-05-07 20:25:00,
2013-05-07 16:30:00,75.0,49.7,30.02,ENE,68,7.0,12.0,41,-99.99,,,0.00,250.00,VWS V14.01,2013-05-07 20:30:00,
2013-05-07 16:35:00,75.0,51.0,30.02,NE,45,8.0,13.0,43,-99.99,,,0.00,260.00,VWS V14.01,2013-05-07 20:35:00,
2013-05-07 16:40:00,75.0,51.0,30.01,East,90,6.0,12.0,43,-99.99,,,0.00,300.00,VWS V14.01,2013-05-07 20:40:00,
2013-05-07 16:45:00,75.0,51.6,30.02,ESE,112,7.0,8.0,44,-99.99,,,0.00,250.00,VWS V14.01,2013-05-07 20:45:00,
2013-05-07 16:50:00,75.0,51.0,30.02,North,0,6.0,11.0,43,-99.99,,,0.00,220.00,VWS V14.01,2013-05-07 20:50:00,
2013-05-07 16:55:00,75.0,51.0,30.02,ENE,68,14.0,14.0,43,-99.99,,,0.00,210.00,VWS V14.01,2013-05-07 20:55:00,
2013-05-07 17:00:00,75.0,50.4,30.02,NE,45,10.0,17.0,42,-99.99,,,0.00,200.00,VWS V14.01,2013-05-07 21:00:00,
2013-05-07 17:05:00,74.0,49.5,30.02,ENE,68,8.0,14.0,42,-99.99,,,0.00,200.00,VWS V14.01,2013-05-07 21:05:00,
2013-05-07 17:10:00,74.0,49.5,30.02,NNE,22,12.0,16.0,42,-99.99,,,0.00,200.00,VWS V14.01,2013-05-07 21:10:00,
2013-05-07 17:15:00,74.0,49.5,30.02,NE,45,10.0,17.0,42,-99.99,,,0.00,180.00,VWS V14.01,2013-05-07 21:15:00,
2013-05-07 17:20:00,74.0,49.5,30.02,East,90,7.0,10.0,42,-99.99,,,0.00,160.00,VWS V14.01,2013-05-07 21:20:00,
2013-05-07 17:25:00,74.0,48.8,30.02,ENE,68,6.0,14.0,41,-99.99,,,0.00,140.00,VWS V14.01,2013-05-07 21:25:00,
2013-05-07 17:30:00,74.0,49.5,30.02,ENE,68,9.0,16.0,42,-99.99,,,0.00,130.00,VWS V14.01,2013-05-07 21:30:00,
2013-05-07 17:35:00,74.0,51.3,30.02,East,90,7.0,16.0,45,-99.99,,,0.00,120.00,VWS V14.01,2013-05-07 21:35:00,
2013-05-07 17:40:00,74.0,52.5,30.02,East,90,9.0,24.0,47,-99.99,,,0.00,100.00,VWS V14.01,2013-05-07 21:40:00,
2013-05-07 17:45:00,73.0,52.2,30.03,East,90,17.0,22.0,48,-99.99,,,0.00,80.00,VWS V14.01,2013-05-07 21:45:00,
2013-05-07 17:50:00,72.0,51.8,30.02,East,90,12.0,26.0,49,-99.99,,,0.00,80.00,VWS V14.01,2013-05-07 21:50:00,
2013-05-07 17:55:00,72.0,52.4,30.03,East,90,5.0,14.0,50,-99.99,,,0.00,80.00,VWS V14.01,2013-05-07 21:55:00,
2013-05-07 18:00:00,71.0,50.9,30.03,ENE,68,12.0,26.0,49,-99.99,,,0.00,70.00,VWS V14.01,2013-05-07 22:00:00,
2013-05-07 18:05:00,71.0,51.5,30.03,ENE,68,5.0,14.0,50,-99.99,,,0.00,60.00,VWS V14.01,2013-05-07 22:05:00,
2013-05-07 18:10:00,71.0,52.0,30.03,East,90,9.0,16.0,51,-99.99,,,0.00,60.00,VWS V14.01,2013-05-07 22:10:00,
2013-05-07 18:15:00,71.0,52.0,30.03,ENE,68,10.0,13.0,51,-99.99,,,0.00,50.00,VWS V14.01,2013-05-07 22:15:00,
2013-05-07 18:20:00,71.0,52.5,30.03,ENE,68,6.0,6.0,52,-99.99,,,0.00,50.00,VWS V14.01,2013-05-07 22:20:00,
2013-05-07 18:25:00,70.0,53.1,30.03,ENE,68,8.0,16.0,55,-99.99,,,0.00,40.00,VWS V14.01,2013-05-07 22:25:00,
2013-05-07 18:30:00,70.0,54.6,30.03,East,90,7.0,18.0,58,-99.99,,,0.00,40.00,VWS V14.01,2013-05-07 22:30:00,
2013-05-07 18:35:00,69.0,54.1,30.03,NE,45,10.0,10.0,59,-99.99,,,0.00,40.00,VWS V14.01,2013-05-07 22:35:00,
2013-05-07 18:40:00,69.0,54.1,30.03,ENE,68,11.0,19.0,59,-99.99,,,0.00,40.00,VWS V14.01,2013-05-07 22:40:00,
2013-05-07 18:45:00,69.0,53.6,30.04,NE,45,10.0,26.0,58,-99.99,,,0.00,40.00,VWS V14.01,2013-05-07 22:45:00,
2013-05-07 18:50:00,69.0,53.2,30.04,East,90,8.0,14.0,57,-99.99,,,0.00,40.00,VWS V14.01,2013-05-07 22:50:00,
2013-05-07 18:55:00,69.0,53.2,30.04,ENE,68,6.0,8.0,57,-99.99,,,0.00,40.00,VWS V14.01,2013-05-07 22:55:00,
2013-05-07 19:00:00,69.0,53.2,30.04,NE,45,5.0,9.0,57,-99.99,,,0.00,30.00,VWS V14.01,2013-05-07 23:00:00,
2013-05-07 19:05:00,69.0,52.7,30.04,NE,45,14.0,14.0,56,-99.99,,,0.00,30.00,VWS V14.01,2013-05-07 23:05:00,
2013-05-07 19:10:00,69.0,52.7,30.04,East,90,6.0,10.0,56,-99.99,,,0.00,30.00,VWS V14.01,2013-05-07 23:10:00,
2013-05-07 19:15:00,69.0,52.7,30.04,East,90,8.0,12.0,56,-99.99,,,0.00,30.00,VWS V14.01,2013-05-07 23:15:00,
2013-05-07 19:20:00,69.0,52.2,30.04,NNE,22,6.0,12.0,55,-99.99,,,0.00,20.00,VWS V14.01,2013-05-07 23:20:00,
2013-05-07 19:25:00,69.0,52.2,30.05,NNE,22,3.0,14.0,55,-99.99,,,0.00,20.00,VWS V14.01,2013-05-07 23:25:00,
2013-05-07 19:30:00,69.0,52.7,30.05,NE,45,7.0,12.0,56,-99.99,,,0.00,20.00,VWS V14.01,2013-05-07 23:30:00,
2013-05-07 19:35:00,69.0,52.7,30.05,NNE,22,6.0,7.0,56,-99.99,,,0.00,20.00,VWS V14.01,2013-05-07 23:35:00,
2013-05-07 19:40:00,69.0,53.2,30.05,North,0,8.0,8.0,57,-99.99,,,0.00,20.00,VWS V14.01,2013-05-07 23:40:00,
2013-05-07 19:45:00,69.0,53.2,30.05,NE,45,6.0,12.0,57,-99.99,,,0.00,10.00,VWS V14.01,2013-05-07 23:45:00,
2013-05-07 19:50:00,69.0,53.6,30.05,NE,45,4.0,12.0,58,-99.99,,,0.00,10.00,VWS V14.01,2013-05-07 23:50:00,
2013-05-07 19:55:00,69.0,54.1,30.05,ENE,68,8.0,9.0,59,-99.99,,,0.00,10.00,VWS V14.01,2013-05-07 23:55:00,
2013-05-07 20:00:00,68.0,53.2,30.05,ENE,68,10.0,13.0,59,-99.99,,,0.00,10.00,VWS V14.01,2013-05-08 00:00:00,
2013-05-07 20:05:00,68.0,53.6,30.04,NE,45,7.0,9.0,60,-99.99,,,0.00,0.00,VWS V14.01,2013-05-08 00:05:00,
2013-05-07 20:10:00,68.0,54.1,30.05,ENE,68,4.0,9.0,61,-99.99,,,0.00,0.00,VWS V14.01,2013-05-08 00:10:00,
2013-05-07 20:15:00,68.0,54.1,30.05,NE,45,5.0,7.0,61,-99.99,,,0.00,0.00,VWS V14.01,2013-05-08 00:15:00,
2013-05-07 20:20:00,68.0,54.1,30.05,ENE,68,6.0,6.0,61,-99.99,,,0.00,0.00,VWS V14.01,2013-05-08 00:20:00,
2013-05-07 20:25:00,68.0,54.5,30.04,NE,45,8.0,9.0,62,-99.99,,,0.00,0.00,VWS V14.01,2013-05-08 00:25:00,
2013-05-07 20:30:00,68.0,54.5,30.04,NE,45,4.0,9.0,62,-99.99,,,0.00,0.00,VWS V14.01,2013-05-08 00:30:00,
2013-05-07 20:35:00,68.0,54.5,30.05,NE,45,4.0,7.0,62,-99.99,,,0.00,0.00,VWS V14.01,2013-05-08 00:35:00,
2013-05-07 20:40:00,68.0,55.0,30.05,NNE,22,4.0,9.0,63,-99.99,,,0.00,0.00,VWS V14.01,2013-05-08 00:40:00,
2013-05-07 20:45:00,67.0,54.4,30.05,NNE,22,7.0,12.0,64,-99.99,,,0.00,0.00,VWS V14.01,2013-05-08 00:45:00,
2013-05-07 20:50:00,67.0,54.4,30.04,NE,45,8.0,11.0,64,-99.99,,,0.00,0.00,VWS V14.01,2013-05-08 00:50:00,
2013-05-07 20:55:00,67.0,54.4,30.05,NE,45,6.0,13.0,64,-99.99,,,0.00,0.00,VWS V14.01,2013-05-08 00:55:00,
2013-05-07 21:00:00,67.0,54.9,30.05,NNE,22,4.0,14.0,65,-99.99,,,0.00,0.00,VWS V14.01,2013-05-08 01:00:00,
2013-05-07 21:05:00,67.0,55.7,30.05,NNE,22,6.0,17.0,67,-99.99,,,0.00,0.00,VWS V14.01,2013-05-08 01:05:00,
2013-05-07 21:10:00,67.0,55.7,30.05,NNE,22,2.0,2.0,67,-99.99,,,0.00,0.00,VWS V14.01,2013-05-08 01:10:00,
2013-05-07 21:15:00,67.0,56.1,30.06,NE,45,8.0,12.0,68,-99.99,,,0.00,0.00,VWS V14.01,2013-05-08 01:15:00,
2013-05-07 21:20:00,67.0,56.1,30.06,NNE,22,3.0,3.0,68,-99.99,,,0.00,0.00,VWS V14.01,2013-05-08 01:20:00,
2013-05-07 21:25:00,67.0,56.5,30.06,NNE,22,7.0,10.0,69,-99.99,,,0.00,0.00,VWS V14.01,2013-05-08 01:25:00,
2013-05-07 21:30:00,67.0,56.5,30.06,NE,45,8.0,11.0,69,-99.99,,,0.00,0.00,VWS V14.01,2013-05-08 01:30:00,
2013-05-07 21:35:00,67.0,56.5,30.06,NNE,22,7.0,10.0,69,-99.99,,,0.00,0.00,VWS V14.01,2013-05-08 01:35:00,
2013-05-07 21:40:00,67.0,56.9,30.06,NE,45,3.0,10.0,70,-99.99,,,0.00,0.00,VWS V14.01,2013-05-08 01:40:00,
2013-05-07 21:45:00,66.0,56.0,30.06,North,0,4.0,9.0,70,-99.99,,,0.00,0.00,VWS V14.01,2013-05-08 01:45:00,
2013-05-07 21:50:00,66.0,56.3,30.06,NNE,22,6.0,7.0,71,-99.99,,,0.00,0.00,VWS V14.01,2013-05-08 01:50:00,
2013-05-07 21:55:00,66.0,56.3,30.06,NE,45,4.0,8.0,71,-99.99,,,0.00,0.00,VWS V14.01,2013-05-08 01:55:00,
2013-05-07 22:00:00,66.0,56.3,30.07,NNE,22,6.0,6.0,71,-99.99,,,0.00,0.00,VWS V14.01,2013-05-08 02:00:00,
2013-05-07 22:05:00,66.0,56.7,30.07,NE,45,5.0,8.0,72,-99.99,,,0.00,0.00,VWS V14.01,2013-05-08 02:05:00,
2013-05-07 22:10:00,66.0,56.7,30.06,NNE,22,5.0,5.0,72,-99.99,,,0.00,0.00,VWS V14.01,2013-05-08 02:10:00,
2013-05-07 22:15:00,66.0,56.7,30.06,NE,45,8.0,8.0,72,-99.99,,,0.00,0.00,VWS V14.01,2013-05-08 02:15:00,
2013-05-07 22:20:00,66.0,56.7,30.06,NE,45,3.0,7.0,72,-99.99,,,0.00,0.00,VWS V14.01,2013-05-08 02:20:00,
2013-05-07 22:25:00,66.0,56.3,30.06,NNE,22,5.0,7.0,71,-99.99,,,0.00,0.00,VWS V14.01,2013-05-08 02:25:00,
2013-05-07 22:30:00,66.0,56.7,30.06,NE,45,5.0,9.0,72,-99.99,,,0.00,0.00,VWS V14.01,2013-05-08 02:30:00,
2013-05-07 22:35:00,66.0,56.7,30.06,NE,45,8.0,9.0,72,-99.99,,,0.00,0.00,VWS V14.01,2013-05-08 02:35:00,
2013-05-07 22:40:00,66.0,56.7,30.06,NNE,22,8.0,8.0,72,-99.99,,,0.00,0.00,VWS V14.01,2013-05-08 02:40:00,
2013-05-07 22:45:00,66.0,57.1,30.06,NE,45,5.0,9.0,73,-99.99,,,0.00,0.00,VWS V14.01,2013-05-08 02:45:00,
2013-05-07 22:50:00,66.0,57.1,30.06,NW,315,4.0,12.0,73,-99.99,,,0.00,0.00,VWS V14.01,2013-05-08 02:50:00,
2013-05-07 22:55:00,66.0,57.5,30.06,NE,45,8.0,9.0,74,-99.99,,,0.00,0.00,VWS V14.01,2013-05-08 02:55:00,
2013-05-07 22:56:00,64.0,58.4,30.06,NNE,22,7.0,10.0,82,-99.99,,,0.00,0.00,VWS V14.01,2013-05-08 02:56:00,
2013-05-07 22:57:00,64.0,58.4,30.06,NE,45,3.0,3.0,82,-99.99,,,0.00,0.00,VWS V14.01,2013-05-08 02:57:00,
2013-05-07 22:58:00,64.0,58.7,30.06,ENE,68,3.0,9.0,83,-99.99,,,0.00,0.00,VWS V14.01,2013-05-08 02:58:00,
2013-05-07 22:59:00,64.0,58.7,30.06,NNE,22,6.0,9.0,83,-99.99,,,0.00,0.00,VWS V14.01,2013-05-08 02:59:00,
2013-05-07 23:00:00,66.0,57.9,30.06,NE,45,5.0,6.0,75,-99.99,,,0.00,0.00,VWS V14.01,2013-05-08 03:00:00,
2013-05-07 23:01:00,64.0,58.7,30.06,NE,45,3.0,3.0,83,-99.99,,,0.00,0.00,VWS V14.01,2013-05-08 03:01:00,
2013-05-07 23:02:00,64.0,58.7,30.06,NNE,22,5.0,15.0,83,-99.99,,,0.00,0.00,VWS V14.01,2013-05-08 03:02:00,
2013-05-07 23:05:00,65.0,56.9,30.06,NE,45,6.0,7.0,75,-99.99,,,0.00,0.00,VWS V14.01,2013-05-08 03:05:00,
2013-05-07 23:10:00,65.0,57.3,30.06,NE,45,6.0,6.0,76,-99.99,,,0.00,0.00,VWS V14.01,2013-05-08 03:10:00,
2013-05-07 23:15:00,65.0,57.3,30.06,NE,45,6.0,10.0,76,-99.99,,,0.00,0.00,VWS V14.01,2013-05-08 03:15:00,
2013-05-07 23:20:00,65.0,57.3,30.06,North,0,6.0,9.0,76,-99.99,,,0.00,0.00,VWS V14.01,2013-05-08 03:20:00,
2013-05-07 23:25:00,65.0,57.3,30.06,ENE,68,8.0,16.0,76,-99.99,,,0.00,0.00,VWS V14.01,2013-05-08 03:25:00,
2013-05-07 23:30:00,65.0,57.6,30.06,ENE,68,6.0,12.0,77,-99.99,,,0.00,0.00,VWS V14.01,2013-05-08 03:30:00,
2013-05-07 23:35:00,65.0,58.0,30.06,NE,45,3.0,4.0,78,-99.99,,,0.00,0.00,VWS V14.01,2013-05-08 03:35:00,
2013-05-07 23:40:00,65.0,58.0,30.06,NE,45,4.0,9.0,78,-99.99,,,0.00,0.00,VWS V14.01,2013-05-08 03:40:00,
2013-05-07 23:45:00,65.0,58.3,30.06,ENE,68,4.0,5.0,79,-99.99,,,0.00,0.00,VWS V14.01,2013-05-08 03:45:00,
2013-05-07 23:50:00,64.0,57.7,30.06,NNE,22,5.0,5.0,80,-99.99,,,0.00,0.00,VWS V14.01,2013-05-08 03:50:00,
2013-05-07 23:55:00,64.0,58.1,30.06,NE,45,13.0,13.0,81,-99.99,,,0.00,0.00,VWS V14.01,2013-05-08 03:55:00,